| time (UTC) | temp F | wind direction | speed MPH | gust MPH | rain 1hr in | rain 24hr in | rain mn in | humidity % | barometer mb |
| 20260503054351 | 73 | 0 | 0.0 | 0.0 | 0.00 | 0.00 | 0.00 | 1011.7 | |
| 20260503053351 | 73 | 0 | 0.0 | 0.0 | 0.00 | 0.00 | 0.00 | 1012.0 | |
| 20260503052351 | 73 | 0 | 0.0 | 0.0 | 0.00 | 0.00 | 0.00 | 1011.9 | |
| 20260503051350 | 72 | 0 | 0.0 | 0.0 | 0.00 | 0.00 | 0.00 | 1011.8 | |
| 20260503050350 | 73 | 0 | 0.0 | 0.0 | 0.00 | 0.00 | 0.00 | 1012.1 | |
| 20260503045350 | 73 | 0 | 0.0 | 0.0 | 0.00 | 0.00 | 0.00 | 1012.2 | |
| 20260503044349 | 72 | 0 | 0.0 | 0.0 | 0.00 | 0.00 | 0.60 | 1012.1 | |
| 20260503043347 | 72 | 0 | 0.0 | 0.0 | 0.00 | 0.00 | 0.60 | 1011.9 | |
| 20260503041346 | 73 | 0 | 0.0 | 0.0 | 0.00 | 0.00 | 0.60 | 1012.0 | |
| 20260503041134 | 73 | 0 | 0.0 | 0.0 | 0.00 | 0.00 | 0.60 | 1011.9 | |
| 20260503040345 | 73 | 0 | 0.0 | 0.0 | 0.00 | 0.00 | 0.60 | 1011.9 | |
| 20260503035345 | 73 | 0 | 0.0 | 0.0 | 0.00 | 0.00 | 0.60 | 1011.7 | |
| 20260503034345 | 73 | 0 | 0.0 | 0.0 | 0.00 | 0.00 | 0.60 | 1011.4 | |
| 20260503033344 | 73 | 0 | 0.0 | 0.0 | 0.00 | 0.00 | 0.60 | 1011.1 | |
| 20260503032343 | 73 | 0 | 0.0 | 0.0 | 0.00 | 0.00 | 0.60 | 1011.1 | |
| 20260503025340 | 73 | 0 | 0.0 | 0.0 | 0.00 | 0.00 | 0.60 | 1010.6 | |
| 20260503024338 | 73 | 0 | 0.0 | 0.0 | 0.00 | 0.00 | 0.60 | 1011.1 | |
| 20260503023337 | 74 | 0 | 0.0 | 0.0 | 0.00 | 0.00 | 0.60 | 1011.0 | |
| 20260503022840 | 72 | 0 | 0.0 | 0.0 | 0.00 | 0.00 | 0.60 | 1010.4 | |
| 20260503021337 | 73 | 0 | 0.0 | 0.0 | 0.00 | 0.00 | 0.60 | 1010.7 | |
| 20260503020337 | 73 | 0 | 0.0 | 0.0 | 0.00 | 0.00 | 0.60 | 1010.9 | |
| 20260503014335 | 73 | 0 | 0.0 | 0.0 | 0.00 | 0.00 | 0.60 | 1010.7 | |
| 20260503013332 | 73 | 0 | 0.0 | 0.0 | 0.00 | 0.00 | 0.60 | 1010.6 | |
| 20260503011332 | 73 | 60 | 2.0 | 7.0 | 0.00 | 0.00 | 0.60 | 1009.0 | |
| 20260503010331 | 73 | 0 | 0.0 | 0.0 | 0.00 | 0.00 | 0.60 | 1009.4 | |
| 20260503005328 | 73 | 0 | 0.0 | 0.0 | 0.00 | 0.00 | 0.60 | 1009.5 | |
| 20260503004328 | 74 | 311 | 1.0 | 4.0 | 0.00 | 0.00 | 0.59 | 1009.8 | |
| 20260503003326 | 73 | 0 | 0.0 | 0.0 | 0.00 | 0.00 | 0.59 | 1009.3 | |
| 20260503001325 | 73 | 0 | 0.0 | 0.0 | 0.00 | 0.00 | 0.59 | 1009.4 | |
| 20260502235322 | 74 | 250 | 1.0 | 3.0 | 0.00 | 0.00 | 0.59 | 1008.7 | |
| 20260502233321 | 73 | 243 | 4.0 | 7.0 | 0.00 | 0.00 | 0.58 | 1009.2 | |
| 20260502232321 | 74 | 0 | 0.0 | 0.0 | 0.00 | 0.00 | 0.58 | 1008.9 | |
| 20260502231320 | 75 | 0 | 0.0 | 0.0 | 0.00 | 0.00 | 0.57 | 1009.4 | |
| 20260502230320 | 75 | 0 | 0.0 | 0.0 | 0.00 | 0.00 | 0.57 | 1008.9 | |
| 20260502225319 | 74 | 0 | 0.0 | 0.0 | 0.00 | 0.00 | 0.57 | 1008.8 | |
| 20260502224319 | 74 | 0 | 0.0 | 0.0 | 0.00 | 0.00 | 0.56 | 1009.2 | |
| 20260502223317 | 76 | 0 | 0.0 | 0.0 | 0.00 | 0.00 | 0.56 | 1008.8 | |
| 20260502222316 | 75 | 0 | 0.0 | 0.0 | 0.00 | 0.00 | 0.55 | 1009.0 | |
| 20260502221312 | 76 | 0 | 0.0 | 0.0 | 0.00 | 0.00 | 0.53 | 1008.9 | |
| 20260502220312 | 76 | 0 | 0.0 | 0.0 | 0.00 | 0.00 | 0.52 | 1009.1 | |
| 20260502215311 | 75 | 0 | 0.0 | 0.0 | 0.00 | 0.00 | 0.51 | 1008.9 | |
| 20260502214312 | 76 | 0 | 0.0 | 0.0 | 0.00 | 0.00 | 0.50 | 1008.8 | |
| 20260502213311 | 76 | 0 | 0.0 | 0.0 | 0.00 | 0.00 | 0.49 | 1008.8 | |
| 20260502212307 | 77 | 285 | 8.0 | 12.0 | 0.00 | 0.00 | 0.48 | 1008.3 | |
| 20260502205343 | 76 | 290 | 8.0 | 12.0 | 0.00 | 0.00 | 0.17 | 1009.0 | |
| 20260502205306 | 76 | 290 | 8.0 | 12.0 | 0.00 | 0.00 | 0.17 | 1009.0 | |
| 20260502204305 | 77 | 339 | 10.0 | 15.0 | 0.00 | 0.00 | 0.16 | 1008.4 | |
| 20260502203305 | 78 | 293 | 13.0 | 17.0 | 0.00 | 0.00 | 0.12 | 1008.4 | |
| 20260502202537 | 81 | 240 | 6.0 | 12.0 | 0.00 | 0.00 | 0.00 | 1007.8 | |
| 20260502202305 | 81 | 240 | 6.0 | 12.0 | 0.00 | 0.00 | 0.00 | 1007.8 | |
| 20260502201305 | 82 | 232 | 8.0 | 16.0 | 0.00 | 0.00 | 0.00 | 1008.1 | |
| 20260502200304 | 82 | 293 | 6.0 | 11.0 | 0.00 | 0.00 | 0.00 | 1008.0 | |
| 20260502195305 | 82 | 194 | 5.0 | 6.0 | 0.00 | 0.00 | 0.00 | 1008.0 | |
| 20260502194304 | 81 | 257 | 9.0 | 14.0 | 0.00 | 0.00 | 0.00 | 1008.4 | |
| 20260502193304 | 82 | 232 | 8.0 | 15.0 | 0.00 | 0.00 | 0.00 | 1008.7 | |
| 20260502192305 | 82 | 246 | 6.0 | 12.0 | 0.00 | 0.00 | 0.00 | 1008.7 | |
| 20260502191303 | 82 | 257 | 12.0 | 24.0 | 0.00 | 0.00 | 0.00 | 1008.7 | |
| 20260502190303 | 82 | 229 | 6.0 | 12.0 | 0.00 | 0.00 | 0.00 | 1008.8 | |
| 20260502185300 | 82 | 231 | 7.0 | 15.0 | 0.00 | 0.00 | 0.00 | 1008.8 | |
| 20260502184258 | 83 | 250 | 7.0 | 14.0 | 0.00 | 0.00 | 0.00 | 1008.9 | |
| 20260502183257 | 83 | 245 | 12.0 | 24.0 | 0.00 | 0.00 | 0.00 | 1009.0 | |
| 20260502182257 | 84 | 253 | 10.0 | 14.0 | 0.00 | 0.00 | 0.00 | 1008.9 | |
| 20260502181257 | 85 | 235 | 8.0 | 16.0 | 0.00 | 0.00 | 0.00 | 1009.2 | |
| 20260502180257 | 85 | 233 | 9.0 | 14.0 | 0.00 | 0.00 | 0.00 | 1009.5 | |
| 20260502170254 | 83 | 245 | 9.0 | 20.0 | 0.00 | 0.00 | 0.00 | 1009.6 | |
| 20260502163253 | 83 | 248 | 10.0 | 21.0 | 0.00 | 0.00 | 0.00 | 1009.7 | |
| 20260502162253 | 83 | 252 | 13.0 | 25.0 | 0.00 | 0.00 | 0.00 | 1009.8 | |
| 20260502161252 | 83 | 205 | 8.0 | 15.0 | 0.00 | 0.00 | 0.00 | 1009.8 | |
| 20260502160252 | 83 | 267 | 12.0 | 24.0 | 0.00 | 0.00 | 0.00 | 1010.0 | |
| 20260502152251 | 82 | 235 | 8.0 | 15.0 | 0.00 | 0.00 | 0.00 | 1009.2 | |
| 20260502151251 | 82 | 224 | 7.0 | 14.0 | 0.00 | 0.00 | 0.00 | 1009.2 | |
| 20260502150554 | 82 | 218 | 7.0 | 11.0 | 0.00 | 0.00 | 0.00 | 1009.3 | |
| 20260502150249 | 82 | 218 | 7.0 | 11.0 | 0.00 | 0.00 | 0.00 | 1009.3 | |
| 20260502123240 | 72 | 0 | 0.0 | 0.0 | 0.00 | 0.00 | 0.00 | 1008.2 | |
| 20260502122237 | 71 | 0 | 0.0 | 0.0 | 0.00 | 0.00 | 0.00 | 1008.2 | |
| 20260502121236 | 71 | 0 | 0.0 | 0.0 | 0.00 | 0.00 | 0.00 | 1008.1 | |
| 20260502120236 | 72 | 90 | 4.0 | 7.0 | 0.00 | 0.00 | 0.00 | 1007.9 | |
| 20260502115236 | 72 | 0 | 0.0 | 0.0 | 0.00 | 0.00 | 0.00 | 1008.0 | |
| 20260502114232 | 71 | 0 | 0.0 | 0.0 | 0.00 | 0.00 | 0.00 | 1007.9 | |
| 20260502113232 | 71 | 0 | 0.0 | 0.0 | 0.00 | 0.00 | 0.00 | 1007.9 | |
| 20260502112231 | 70 | 0 | 0.0 | 0.0 | 0.00 | 0.00 | 0.00 | 1007.9 | |
| 20260502111847 | 71 | 0 | 0.0 | 0.0 | 0.00 | 0.00 | 0.00 | 1007.7 | |
| 20260502111231 | 71 | 0 | 0.0 | 0.0 | 0.00 | 0.00 | 0.00 | 1007.7 | |
| 20260502110232 | 71 | 0 | 0.0 | 0.0 | 0.00 | 0.00 | 0.00 | 1007.5 | |
| 20260502104346 | 71 | 0 | 0.0 | 0.0 | 0.00 | 0.00 | 0.00 | 1007.5 | |
| 20260502104230 | 71 | 0 | 0.0 | 0.0 | 0.00 | 0.00 | 0.00 | 1007.5 | |
| 20260502103340 | 71 | 0 | 0.0 | 0.0 | 0.00 | 0.00 | 0.00 | 1007.7 | |
| 20260502103230 | 71 | 0 | 0.0 | 0.0 | 0.00 | 0.00 | 0.00 | 1007.5 | |
| 20260502102230 | 71 | 0 | 0.0 | 0.0 | 0.00 | 0.00 | 0.00 | 1007.7 | |
| 20260502101229 | 71 | 0 | 0.0 | 0.0 | 0.00 | 0.00 | 0.00 | 1007.9 | |
| 20260502100227 | 71 | 0 | 0.0 | 0.0 | 0.00 | 0.00 | 0.00 | 1008.0 | |
| 20260502091215 | 72 | 0 | 0.0 | 0.0 | 0.00 | 0.00 | 0.00 | 1008.1 | |
| 20260502091107 | 72 | 0 | 0.0 | 0.0 | 0.00 | 0.00 | 0.00 | 1008.2 | |
| 20260502090209 | 72 | 0 | 0.0 | 0.0 | 0.00 | 0.00 | 0.00 | 1008.1 | |
| 20260502071124 | 73 | 0 | 0.0 | 0.0 | 0.00 | 0.00 | 0.00 | 1008.7 | |
| 20260502070123 | 73 | 0 | 0.0 | 0.0 | 0.00 | 0.00 | 0.00 | 1008.6 | |
| 20260502065119 | 73 | 0 | 0.0 | 0.0 | 0.00 | 0.00 | 0.00 | 1008.6 | |
| 20260502064334 | 74 | 0 | 0.0 | 0.0 | 0.00 | 0.00 | 0.00 | 1008.7 | |
| 20260502064120 | 73 | 0 | 0.0 | 0.0 | 0.00 | 0.00 | 0.00 | 1008.6 |